Powrót do katalogu

YAOGAN 15

AktywnyMilitariaSSO
NORAD 38354·PAYLOAD·🇨🇳 China

Wystrzelony May 29, 2012 z Taiyuan Satellite Launch Center

Loading…

Następne Przeloty (najbliższe 24 godziny)

TLE

ŚwieżeSource: Space-Track

Epoka: Sep 14, 2026, 15:27 UTC

1 38354U 12029A   26257.64431994 -.00000224  00000-0 -44985-3 0  9992
2 38354 100.7254 104.0301 0025870  88.9081 271.4996 13.18386396687231

Śledź YAOGAN 15 w czasie rzeczywistym z AllMySat

Download on the App Store